Terminal Aerodrome Forecast
Issued by NWS Albany, NY

Home | Current Version | Previous Version | Text Only | Print | Product List | Glossary On
Versions: 1 2 3 4 5 6 7 8 9 10 11 12 13 14 15 16 17 18
000
FTUS41 KALY 202100 AAC
TAFPOU
TAF AMD
KPOU 202159Z 2022/2118 35005KT P6SM OVC035
     FM210100 01004KT P6SM BKN025 OVC040
     FM210800 VRB03KT P6SM VCSH BKN015 OVC025 PROB30 2111/2115 5SM
      -SHSN BR BKN010 OVC025=

USA.gov is the U.S. government's official web portal to all federal, state and local government web resources and services.